Weather History for West Palm Beach, FL

Change the Weather History Date:

Sunday, June 30, 2013

  Actual Average Record
Temperature  
Mean Temperature 84 °F 82 °F  
Max Temperature 92 °F 89 °F 96 °F (1959)
Min Temperature 75 °F 75 °F 67 °F (1911)
Degree Days  
Heating Degree Days 0 0  
Month to date heating degree days 0 0  
Since 1 June heating degree days 0 0  
Since 1 July heating degree days 164 233  
Cooling Degree Days 19 17  
Month to date cooling degree days 489 490  
Year to date cooling degree days 1674 1599  
Since 1 June cooling degree days 489 490  
Growing Degree Days 33 (Base 50)    
Moisture  
Dew Point 71 °F    
Average Humidity 69    
Maximum Humidity 85    
Minimum Humidity 52    
Precipitation  
Precipitation 1.35 in 0.28 in 4.23 in (1966)
Month to date precipitation 12.73 8.30  
Year to date precipitation 37.68 27.01  
Snow  
Snow 0.00 in - - ()
Month to date snowfall 0.0  
Since 1 June snowfall 0.0  
Since 1 July snowfall 0.0  
Snow Depth 0.00 in    
Sea Level Pressure  
Sea Level Pressure 29.90 in    
Wind  
Wind Speed 8 mph (SSW)    
Max Wind Speed 24 mph    
Max Gust Speed 32 mph    
Visibility 8 miles    
Events Rain , Thunderstorm    
T = Trace of Precipitation, MM = Missing Value Source: NWS Daily Summary

Daily Weather History Graph

Daily Weather History Graph

Search for Another Location

Airport:

Trip Planner

Search our weather history database for the weather conditions in past years. The results will help you decide how hot, cold, wet, or windy it might be!

Date:

Astronomy

Jun. 30, 2013 Rise Set
Actual Time 6:30 AM EDT 8:17 PM EDT
Civil Twilight 6:04 AM EDT 8:44 PM EDT
Nautical Twilight 5:32 AM EDT 9:15 PM EDT
Astronomical Twilight 4:59 AM EDT 9:48 PM EDT
Moon 1:01 AM EDT (6/30) 1:54 PM EDT (6/30)
Length of Visible Light 14h 40m
Length of Day
13h 47m
Last Quarter, 45% of the Moon is Illuminated
Jun 30
Last Quarter
Jul 8
New
Jul 15
First Quarter
Jul 22
Full
Jul 29
Last Quarter

Hourly Weather History & Observations

Time (EDT) Temp. Heat Index Dew Point Humidity Pressure Visibility Wind Dir Wind Speed Gust Speed Precip Events Conditions
12:53 AM 81.0 °F 85.8 °F 73.0 °F 77% 29.89 in 10.0 mi South 4.6 mph - N/A   Mostly Cloudy
1:53 AM 80.1 °F 83.8 °F 72.0 °F 76% 29.87 in 10.0 mi South 6.9 mph - N/A   Partly Cloudy
2:53 AM 80.1 °F 83.8 °F 72.0 °F 76% 29.87 in 10.0 mi South 5.8 mph - N/A   Partly Cloudy
3:53 AM 79.0 °F - 71.1 °F 77% 29.86 in 10.0 mi SSW 4.6 mph - N/A   Partly Cloudy
4:53 AM 79.0 °F - 71.1 °F 77% 29.85 in 10.0 mi South 5.8 mph - N/A   Partly Cloudy
5:53 AM 79.0 °F - 71.1 °F 77% 29.87 in 10.0 mi South 4.6 mph - N/A   Partly Cloudy
6:53 AM 79.0 °F - 72.0 °F 79% 29.88 in 10.0 mi South 4.6 mph - N/A   Scattered Clouds
7:53 AM 82.0 °F 87.4 °F 73.0 °F 74% 29.90 in 10.0 mi South 6.9 mph - N/A   Mostly Cloudy
8:53 AM 84.9 °F 92.1 °F 73.9 °F 69% 29.90 in 10.0 mi SSW 9.2 mph - N/A   Mostly Cloudy
9:39 AM 86.0 °F 93.4 °F 73.4 °F 66% 29.90 in 10.0 mi SW 13.8 mph - N/A   Mostly Cloudy
9:53 AM 87.1 °F 94.5 °F 73.0 °F 63% 29.90 in 10.0 mi SSW 11.5 mph - N/A   Mostly Cloudy
10:53 AM 88.0 °F 93.8 °F 71.1 °F 57% 29.90 in 10.0 mi SW 15.0 mph - N/A   Mostly Cloudy
11:06 AM 89.6 °F 94.7 °F 69.8 °F 52% 29.90 in 10.0 mi South 16.1 mph 23.0 mph N/A   Mostly Cloudy
11:53 AM 90.0 °F 95.4 °F 70.0 °F 52% 29.89 in 10.0 mi SW 16.1 mph 19.6 mph N/A   Mostly Cloudy
12:53 PM 84.0 °F 90.2 °F 73.0 °F 69% 29.90 in 4.0 mi South 18.4 mph - 0.00 in Rain Rain
1:06 PM 82.4 °F 88.2 °F 73.4 °F 74% 29.91 in 7.0 mi SW 23.0 mph 32.2 mph 0.02 in Rain , Thunderstorm Light Thunderstorms and Rain
1:12 PM 80.6 °F 84.6 °F 71.6 °F 74% 29.90 in 7.0 mi SW 13.8 mph 32.2 mph 0.03 in Rain , Thunderstorm Light Thunderstorms and Rain
1:53 PM 81.0 °F 83.8 °F 68.0 °F 65% 29.90 in 7.0 mi SSE 4.6 mph - 0.06 in Rain , Thunderstorm Light Thunderstorms and Rain
2:13 PM 82.4 °F 87.2 °F 71.6 °F 70% 29.88 in 10.0 mi SE 4.6 mph - 0.00 in   Mostly Cloudy
2:43 PM 87.8 °F 95.6 °F 73.4 °F 62% 29.88 in 10.0 mi SSE 15.0 mph 23.0 mph 0.00 in Thunderstorm Thunderstorm
2:53 PM 86.0 °F 93.0 °F 73.0 °F 65% 29.87 in 10.0 mi SE 19.6 mph 27.6 mph 0.00 in Thunderstorm Thunderstorm
3:25 PM 82.4 °F 86.3 °F 69.8 °F 66% 29.90 in 10.0 mi West 19.6 mph 26.5 mph N/A Thunderstorm Thunderstorm
3:53 PM 75.9 °F - 69.1 °F 79% 29.92 in 2.0 mi WSW 19.6 mph 26.5 mph 0.00 in Rain , Thunderstorm Heavy Thunderstorms and Rain
3:57 PM 75.2 °F - 69.8 °F 83% 29.92 in 1.0 mi SW 19.6 mph 27.6 mph 0.07 in Rain , Thunderstorm Heavy Thunderstorms and Rain
4:07 PM 75.2 °F - 69.8 °F 83% 29.90 in 1.0 mi South 12.7 mph 27.6 mph 0.54 in Rain , Thunderstorm Heavy Thunderstorms and Rain
4:12 PM 75.2 °F - 69.8 °F 83% 29.90 in 2.5 mi SSE 13.8 mph - 0.69 in Rain , Thunderstorm Heavy Thunderstorms and Rain
4:17 PM 77.0 °F - 69.8 °F 78% 29.89 in 3.0 mi SSE 10.4 mph - 0.74 in Rain , Thunderstorm Heavy Thunderstorms and Rain
4:44 PM 78.8 °F - 71.6 °F 78% 29.91 in 2.0 mi South 16.1 mph 23.0 mph 0.83 in Rain , Thunderstorm Heavy Thunderstorms and Rain
4:53 PM 77.0 °F - 70.0 °F 79% 29.90 in 2.5 mi SSW 9.2 mph 24.2 mph 0.97 in Rain , Thunderstorm Heavy Thunderstorms and Rain
5:02 PM 77.0 °F - 69.8 °F 78% 29.89 in 4.0 mi SSE 9.2 mph - 0.10 in Rain , Thunderstorm Thunderstorms and Rain
5:35 PM 78.8 °F - 71.6 °F 78% 29.89 in 10.0 mi Calm Calm - 0.13 in   Mostly Cloudy
5:53 PM 78.1 °F - 72.0 °F 81% 29.89 in 10.0 mi South 5.8 mph - 0.13 in Rain Light Rain
6:53 PM 79.0 °F - 73.0 °F 82% 29.88 in 10.0 mi Calm Calm - 0.08 in Rain Light Rain
7:53 PM 79.0 °F - 72.0 °F 79% 29.91 in 10.0 mi Variable 5.8 mph - 0.03 in   Mostly Cloudy
8:39 PM 78.8 °F - 71.6 °F 78% 29.92 in 10.0 mi SW 4.6 mph - 0.00 in Thunderstorm Thunderstorm
8:53 PM 79.0 °F - 71.1 °F 77% 29.94 in 10.0 mi SW 12.7 mph - 0.00 in Thunderstorm Thunderstorm
9:01 PM 78.8 °F - 71.6 °F 78% 29.94 in 3.0 mi SW 10.4 mph 20.7 mph 0.01 in Rain , Thunderstorm Thunderstorms and Rain
9:29 PM 77.0 °F - 71.6 °F 83% 29.93 in 10.0 mi WSW 5.8 mph - 0.08 in Rain Light Rain
9:53 PM 77.0 °F - 71.1 °F 82% 29.93 in 10.0 mi Calm Calm - 0.08 in   Mostly Cloudy
10:53 PM 77.0 °F - 71.1 °F 82% 29.94 in 10.0 mi Calm Calm - N/A   Overcast
11:53 PM 78.1 °F - 72.0 °F 81% 29.96 in 10.0 mi SE 4.6 mph - N/A   Overcast